504  
ASUS42 KMHX 272322  
RWRMHX  
WEATHER ROUNDUP FOR EASTERN NORTH CAROLINA  
NATIONAL WEATHER SERVICE NEWPORT/MOREHEAD CITY NC  
700 PM EDT TUE SEP 27 2022  
 
NOTE: "FAIR" INDICATES FEW OR NO CLOUDS BELOW 12,000 FEET  
WITH NO SIGNIFICANT WEATHER AND/OR S TO VISIBILITY
 
 
NCZ015>017-031-032-045>047-102-103-280000-  
NORTH COAST  
 
CITY SKY/WX TMP DP RH WIND PRES REMARKS
 
EDENTON MOCLDY 73 50 43 NW6 29.98R  
ELIZABETH CITY MOCLDY 71 45 39 W7 29.94R  
KITTY HAWK MOCLDY 67 55 66 CALM 29.94R  
MANTEO MOCLDY 65 57 75 CALM 29.96R  
 

 
 
NCZ045>047-081-094-103-104-280000-  
CENTRAL COAST  
 
CITY SKY/WX TMP DP RH WIND PRES REMARKS
 
FRISCO MOCLDY 69 60 73 NE3 29.94R  
 

 
 
NCZ095-097-098-100-101-280000-  
SOUTHERN COAST  
 
CITY SKY/WX TMP DP RH WIND PRES REMARKS
 
PINEY ISLAND MOCLDY 78 60 53 NW3 29.95R  
BEAUFORT MOCLDY 73 56 54 NW7 29.95R  
CAPE CARTERET MOCLDY 72 57 59 CALM 29.97R  
JACKSONVILLE MOCLDY 67 59 75 W3 29.96R  
WILMINGTON CLOUDY 69 61 75 CALM 29.97R  
 

 
 
NCZ011>013-027>030-043-044-078>080-089-090>093-098-280000-  
COASTAL PLAIN  
 
CITY SKY/WX TMP DP RH WIND PRES REMARKS
 
AHOSKIE PTCLDY 63 44 49 CALM 29.98R  
ROCKY MOUNT PTCLDY 73 40 30 W7 29.98R  
GREENVILLE MOCLDY 66 52 59 CALM 29.98R  
WASHINGTON MOCLDY 68 52 56 CALM 29.98R  
GOLDSBORO MOCLDY 71 46 41 CALM 29.94R  
KINSTON CLEAR 70 52 52 CALM 29.98R  
NEW BERN MOCLDY 68 59 73 CALM 29.97R  
HAVELOCK MOCLDY 71 56 58 W6 29.97R  
KENANSVILLE MOCLDY 63 57 82 CALM 29.99R  
RICHLANDS MOCLDY 67 60 78 CALM 29.98R  
CLINTON MOCLDY 69 52 54 CALM 29.99R  
ELIZABETHTOWN MOCLDY 70 52 53 CALM 29.99R  
WHITEVILLE MOCLDY 67 58 72 CALM 29.99R  
 

 
 
AMZ130-135-150-152-154-156-158-170-250-252-270-ANZ085-086-088-633-658-670-280000-  
MARINE OBSERVATIONS  
 
STATION/POSITION TIME TEMP WIND PRES WAVE SWELL
 
AIR SEA DIR/SP/G HT/PER HT/PER  
(UTC) (F) (DEG/KT/KT) (MB) (FT/S) (FT/S)  
64 E VA BEACH 2310 71 30/ 6/ 8 1013.2  
64 E VA BEACH 2230 69 71 N/A 4/ 7 2/10  
DUCK PIER 2248 71 74 110/ 6/ 8 1013.9  
2 E DUCK 2256 75 N/A 2/ 7  
10 NE DUCK 2256 74 N/A 3/ 8  
OREGON INLET 2236 71 77 50/ 4/ 6 1013.8  
13E OREGON INLT 2256 77 N/A 3/ 7 3/ 7  
13E CAPE HATTERA 2230 79 N/A 3/ 7  
HATTERAS CG 2248 73 76 40/ 3/ 6 1014.4  
DIAMOND BUOY 2300 80 20/ 6/ 10 1013.6  
CAPE LOOKOUT 2300 74 330/ 7/ 8 1014.6  
BEAUFORT LAB 2248 73 78 330/ 3/ 5 1013.4  
30 SE NEW RVR IN NOT AVBL  
30 SE NEW RVR IN 2256 81 N/A 2/ 6  
27 SE WRIGHTSVLE 2208 76 81 350/ 8/ 12 1013.9  
5 SE WRIGHTSVLE NOT AVBL  
27 SE WRIGHTSVL 2208 76 81 350/ 8/ 12 1013.9  
FRYING PAN BUOY 2300 76 81 20/ 8/ 12 1014.3  
225 S CAPE HAT 2310 81 81 230/ 12/ 16 1013.1  
41 SE CHARLESTON 2310 76 82 30/ 8/ 12 1014.8  
 

 
 
 
CLICK HERE TO GO TO PREVIOUS BULLETINS.

The Nexlab NC Page Main Text Page